Location: Asheville, NC
(35.6000°N, 82.5500°W)
Time: 01:40:02
(UTC-04:00)

STRAND 1 - Pass Details

Date: 03 January 2018
Orbit: 767 x 782 km, 98.5° (Epoch: 25 April)

Event Time Altitude Azimuth Distance (km) Brightness Sun altitude
Exits shadow 19:08:36 12° 137° (SE) 2,204 ? -19.6°
Drops below altitude 10° 19:09:02 10° 141° (SE) 2,322 ? -19.6°
Sets 19:11:55 0° 158° (SSE) 3,239 ? -20.2°
